Terminal Aerodrome Forecast
Issued by NWS

Home | Current Version | Previous Version | Graphics & Text | Print | Product List | Glossary On
Versions: 1 2 3 4 5 6 7 8 9 10 11 12 13 14 15 16 17 18 19 20 21 22 23 24 25 26
000
FTUS43 KABR 312100 AAB
TAFPIR
TAF AMD
KPIR 312101Z 3121/0118 06015KT 5SM BR OVC008
     FM312300 06018KT 4SM BR OVC015
     FM010300 03018G23KT 2SM -SN OVC015
     FM011500 34014KT 5SM BR OVC025
     FM011700 34012KT P6SM SKC=

USA.gov is the U.S. government's official web portal to all federal, state and local government web resources and services.